Terminal Aerodrome Forecast
Issued by NWS Cleveland, OH

Home | Current Version | Previous Version | Graphics & Text | Print | Product List | Glossary On
Versions: 1 2 3 4 5 6 7 8 9 10 11 12 13 14 15
675
FTUS41 KCLE 160531
TAFYNG
TAF
KYNG 160531Z 1606/1706 23004KT 1SM -SN OVC010
     FM161000 25004KT 2SM -SN OVC015
     FM161200 25006KT P6SM -SN OVC010
     FM161500 24007KT P6SM BKN010 OVC020
     FM161800 23008KT P6SM BKN020 OVC040
     FM170400 25005KT P6SM BKN015=

USA.gov is the U.S. government's official web portal to all federal, state and local government web resources and services.